Showing default

ICEYE-X30, 56947

Orbit data source: Space-Track

ICEYE-X30, 56947 is a payload satellite owned by ICEYE US (US) in SSO that was launched on Mon, 12 Jun 2023 UTC via an FALCON 9 launch vehicle from the Air Force Western Test Range (AFWTR). Payload-class satellites include a variety of spacecraft equipped with specific instruments for various scientific and technological missions. These include communications satellites like Starlink; space stations such as the ISS; scientific satellites like the Hubble; Earth observation satellites from companies like Planet Labs, Umbra, and HawkEye 360; GPS; miniature CubeSats for education and research; and military/defense satellites.

Loading next visibility...
Identifier
56947, 2023-084R
Orbit
SSO
Country
Flag of USUS
Related business
Manufacturer
ICEYE
Mission
Operational Commercial Radar Imaging
Bus & Motor
ICEYE, Unknown motor
Mass
90 kg wet, 89 kg dry
Launch date (UTC)
2023-06-12 (2 years ago)
Launch vehicle
FALCON 9
Launch site
Air Force Western Test Range (AFWTR)
Object type
Payload
Rocket body
Debris
Shape & HBR
Box + 1 Pan, 1.6 m
Radar Cross Section
0.825 m², Medium (>0.1 m² and < 1m²)

Expand to show TLE details & history
Last TLE update: 19 hours ago

TLE from 19 hours ago
0 ICEYE-X30
1 56947U 23084R   25286.33831790  .00049675  00000-0  89080-3 0  9994
2 56947  97.5756  62.8356 0005306 148.2372 211.9200 15.49763002130256
Epoch: 2025-10-13T08:07Z
TLE epoch observation values (Epoch: 2025-10-13T08:07:10.666Z)
Latitude
Longitude
-81.10137°
Altitude
423.606 km
Speed
7.655 km/s
True Right ascension
04h 11m 20s
True Declination
0° 00' 00"
Sunlit
Object was in full shadow at epoch
Visualization orbit readout
Latitude
Unknown
Longitude
Unknown
Altitude
Unknown
Speed
Unknown
Apparent Right ascension
Unknown
Apparent Declination
Unknown
Sunlit
N/A
Visualization observer readout
Local Sidereal Time
21:34:47
Azimuth
Unknown
Elevation
Unknown
Doppler factor
Unknown
Orbital elements
Apogee altitude
417.957 km
Perigee altitude
410.748 km
Semi-major axis
6,792.489 km
Eccentricity
0.00053
Inclination
97.5756°
RAAN
62.8356°
Arg. of periapsis
148.2372°
True anomaly
211.88787°
Mean anomaly
211.92°
Eccentric anomaly
211.90393°
Mean motion
3.87703 °/min
Orbital period
92.85 mins
BSTAR
0.0008908
Loading maneuver chart data...
Computing Atmospheric mass density...

Documentation

Showing up to 5 results
|